N6OIL Weather Reports


Display with metric or nautical units.
time (UTC)temp
F
wind
direction
speed
MPH
gust
MPH
rain 1hr
in
rain 24hr
in
rain mn
in
humidity
%
barometer
mb
20260510185704 88 126 4.0 10.0 0.00 0.00 0.00 15 1016.2
20260510185204 88 254 4.0 10.0 0.00 0.00 0.00 15 1016.2
20260510184705 89 153 4.0 10.0 0.00 0.00 0.00 15 1016.3
20260510184203 88 159 3.0 10.0 0.00 0.00 0.00 14 1016.3
20260510183204 89 212 3.0 9.0 0.00 0.00 0.00 15 1016.3
20260510182205 89 193 3.0 7.0 0.00 0.00 0.00 15 1016.4
20260510181704 89 203 2.0 7.0 0.00 0.00 0.00 15 1016.4
20260510181205 88 126 3.0 7.0 0.00 0.00 0.00 15 1016.4
20260510180704 88 140 3.0 8.0 0.00 0.00 0.00 14 1016.4
20260510180204 88 141 3.0 8.0 0.00 0.00 0.00 15 1016.4
20260510175205 87 129 2.0 4.0 0.00 0.00 0.00 16 1016.4
20260510174705 87 129 2.0 5.0 0.00 0.00 0.00 15 1016.4
20260510174204 86 133 2.0 5.0 0.00 0.00 0.00 16 1016.4
20260510173704 85 132 3.0 5.0 0.00 0.00 0.00 16 1016.4
20260510173205 85 132 3.0 5.0 0.00 0.00 0.00 17 1016.3
20260510172705 85 134 3.0 5.0 0.00 0.00 0.00 17 1016.3
20260510172204 85 136 2.0 4.0 0.00 0.00 0.00 18 1016.3
20260510171704 84 137 2.0 4.0 0.00 0.00 0.00 18 1016.3
20260510171206 84 137 2.0 5.0 0.00 0.00 0.00 18 1016.3
20260510170704 83 137 3.0 5.0 0.00 0.00 0.00 18 1016.2
20260510170204 83 137 2.0 5.0 0.00 0.00 0.00 19 1016.3
20260510165704 83 136 2.0 5.0 0.00 0.00 0.00 19 1016.3
20260510164204 82 139 3.0 5.0 0.00 0.00 0.00 20 1016.2
20260510163704 82 138 3.0 5.0 0.00 0.00 0.00 19 1016.2
20260510163204 82 138 2.0 4.0 0.00 0.00 0.00 20 1016.2
20260510162704 82 138 2.0 4.0 0.00 0.00 0.00 20 1016.2
20260510162205 82 138 1.0 5.0 0.00 0.00 0.00 20 1016.2
20260510161206 81 138 2.0 5.0 0.00 0.00 0.00 20 1016.1
20260510160704 81 140 2.0 5.0 0.00 0.00 0.00 20 1016.0
20260510160204 81 140 2.0 5.0 0.00 0.00 0.00 20 1016.1
20260510155204 80 342 2.0 3.0 0.00 0.00 0.00 20 1016.1
20260510154704 80 342 1.0 3.0 0.00 0.00 0.00 21 1016.1
20260510154204 79 342 1.0 3.0 0.00 0.00 0.00 21 1016.0
20260510153704 79 342 2.0 3.0 0.00 0.00 0.00 21 1016.0
20260510153204 79 342 1.0 2.0 0.00 0.00 0.00 22 1016.0
20260510152704 79 342 1.0 3.0 0.00 0.00 0.00 22 1016.0
20260510152204 78 342 1.0 3.0 0.00 0.00 0.00 22 1015.9
20260510151204 77 342 1.0 3.0 0.00 0.00 0.00 24 1015.9
20260510150704 77 342 1.0 3.0 0.00 0.00 0.00 22 1015.7
20260510145704 76 342 1.0 2.0 0.00 0.00 0.00 23 1015.7
20260510145204 75 342 1.0 2.0 0.00 0.00 0.00 24 1015.7
20260510144705 74 342 0.0 2.0 0.00 0.00 0.00 24 1015.6
20260510144204 73 342 0.0 2.0 0.00 0.00 0.00 26 1015.6
20260510143704 71 342 1.0 3.0 0.00 0.00 0.00 27 1015.6
20260510143204 70 342 2.0 3.0 0.00 0.00 0.00 27 1015.6
20260510142704 69 342 2.0 4.0 0.00 0.00 0.00 28 1015.5
20260510142205 69 342 2.0 4.0 0.00 0.00 0.00 28 1015.4
20260510141704 68 342 2.0 4.0 0.00 0.00 0.00 29 1015.4
20260510141206 67 358 3.0 4.0 0.00 0.00 0.00 29 1015.3
20260510140705 66 358 3.0 4.0 0.00 0.00 0.00 30 1015.3
20260510140206 65 358 3.0 4.0 0.00 0.00 0.00 30 1015.2
20260510135704 64 358 3.0 4.0 0.00 0.00 0.00 31 1015.2
20260510135205 63 358 3.0 5.0 0.00 0.00 0.00 32 1015.2
20260510134704 62 342 3.0 5.0 0.00 0.00 0.00 31 1015.1
20260510134206 62 342 4.0 5.0 0.00 0.00 0.00 33 1015.1
20260510133204 60 342 4.0 6.0 0.00 0.00 0.00 34 1014.9
20260510132705 60 342 4.0 6.0 0.00 0.00 0.00 35 1014.9
20260510132205 59 342 4.0 6.0 0.00 0.00 0.00 35 1014.7
20260510131705 59 342 4.0 6.0 0.00 0.00 0.00 36 1014.7
20260510131204 58 342 5.0 6.0 0.00 0.00 0.00 36 1014.7
20260510130704 58 342 5.0 6.0 0.00 0.00 0.00 37 1014.6
20260510130205 58 341 5.0 6.0 0.00 0.00 0.00 38 1014.6
20260510125704 58 341 5.0 6.0 0.00 0.00 0.00 38 1014.6
20260510125204 58 341 5.0 6.0 0.00 0.00 0.00 38 1014.6
20260510124704 57 340 5.0 6.0 0.00 0.00 0.00 37 1014.6
20260510124204 57 340 4.0 5.0 0.00 0.00 0.00 37 1014.6
20260510123705 57 340 4.0 5.0 0.00 0.00 0.00 37 1014.6
20260510123205 57 340 4.0 5.0 0.00 0.00 0.00 37 1014.6
20260510122706 58 340 4.0 5.0 0.00 0.00 0.00 37 1014.6
20260510122204 58 340 4.0 5.0 0.00 0.00 0.00 37 1014.6
20260510121704 58 340 4.0 5.0 0.00 0.00 0.00 37 1014.5
20260510121204 58 340 4.0 6.0 0.00 0.00 0.00 37 1014.5
20260510120704 58 340 4.0 6.0 0.00 0.00 0.00 37 1014.5
20260510120204 58 340 4.0 6.0 0.00 0.00 0.00 37 1014.5
20260510115705 58 340 4.0 5.0 0.00 0.00 0.00 36 1014.5
20260510115204 58 340 4.0 5.0 0.00 0.00 0.00 36 1014.5
20260510114704 58 340 4.0 5.0 0.00 0.00 0.00 36 1014.4
20260510114206 58 340 4.0 5.0 0.00 0.00 0.00 36 1014.4
20260510113704 59 340 4.0 5.0 0.00 0.00 0.00 36 1014.4
20260510113204 59 340 4.0 5.0 0.00 0.00 0.00 36 1014.4
20260510112704 59 340 3.0 5.0 0.00 0.00 0.00 36 1014.3
20260510112204 59 340 3.0 5.0 0.00 0.00 0.00 36 1014.3
20260510111704 59 340 3.0 4.0 0.00 0.00 0.00 36 1014.3
20260510110704 60 340 4.0 5.0 0.00 0.00 0.00 35 1014.3
20260510110204 60 340 4.0 6.0 0.00 0.00 0.00 35 1014.3
20260510105704 60 340 4.0 6.0 0.00 0.00 0.00 35 1014.3
20260510105204 61 340 4.0 6.0 0.00 0.00 0.00 34 1014.3
20260510104206 61 340 4.0 6.0 0.00 0.00 0.00 34 1014.3
20260510103204 61 340 5.0 6.0 0.00 0.00 0.00 35 1014.2
20260510102704 61 340 5.0 6.0 0.00 0.00 0.00 35 1014.3
20260510102204 61 340 4.0 6.0 0.00 0.00 0.00 36 1014.3
20260510101204 61 340 4.0 6.0 0.00 0.00 0.00 37 1014.3
20260510100704 61 340 4.0 5.0 0.00 0.00 0.00 37 1014.3
20260510100204 60 340 4.0 5.0 0.00 0.00 0.00 38 1014.3
20260510095704 60 339 3.0 5.0 0.00 0.00 0.00 38 1014.3
20260510095204 60 339 4.0 5.0 0.00 0.00 0.00 38 1014.4
20260510094704 60 339 4.0 6.0 0.00 0.00 0.00 39 1014.4
20260510094204 60 339 4.0 8.0 0.00 0.00 0.00 41 1014.4
20260510093704 60 339 5.0 8.0 0.00 0.00 0.00 41 1014.4
20260510093204 60 339 4.0 8.0 0.00 0.00 0.00 42 1014.3
20260510092704 60 340 4.0 5.0 0.00 0.00 0.00 42 1014.3
20260510092204 60 340 4.0 5.0 0.00 0.00 0.00 44 1014.3
20260510091705 61 340 4.0 5.0 0.00 0.00 0.00 44 1014.3
20260510091205 61 340 4.0 5.0 0.00 0.00 0.00 46 1014.3
20260510090704 61 340 4.0 5.0 0.00 0.00 0.00 47 1014.4
20260510090205 61 340 4.0 5.0 0.00 0.00 0.00 49 1014.3
20260510085706 60 340 4.0 5.0 0.00 0.00 0.00 50 1014.3
20260510085204 60 340 4.0 6.0 0.00 0.00 0.00 50 1014.2
20260510084705 61 340 4.0 8.0 0.00 0.00 0.00 49 1014.2
20260510084204 62 340 4.0 9.0 0.00 0.00 0.00 48 1014.2
20260510083705 62 340 5.0 9.0 0.00 0.00 0.00 48 1014.3
20260510083204 62 337 6.0 9.0 0.00 0.00 0.00 48 1014.3
20260510082704 62 336 5.0 8.0 0.00 0.00 0.00 49 1014.3
20260510081705 61 316 3.0 5.0 0.00 0.00 0.00 49 1014.4
20260510081204 62 316 3.0 6.0 0.00 0.00 0.00 49 1014.5
20260510080704 62 316 4.0 6.0 0.00 0.00 0.00 48 1014.5
20260510075704 64 319 5.0 8.0 0.00 0.00 0.00 45 1014.5
20260510075203 64 326 5.0 8.0 0.00 0.00 0.00 44 1014.5
20260510074704 65 331 4.0 8.0 0.00 0.00 0.00 44 1014.6
20260510074204 65 336 5.0 9.0 0.00 0.00 0.00 43 1014.6
20260510073704 65 335 5.0 10.0 0.00 0.00 0.00 43 1014.6
20260510073204 66 336 6.0 10.0 0.00 0.00 0.00 43 1014.6
20260510072704 66 337 6.0 10.0 0.00 0.00 0.00 43 1014.6
20260510072205 66 343 5.0 13.0 0.00 0.00 0.00 43 1014.6
20260510071704 66 317 6.0 13.0 0.00 0.00 0.00 44 1014.6
20260510071204 66 314 7.0 13.0 0.00 0.00 0.00 45 1014.7
20260510070706 64 319 7.0 10.0 0.00 0.00 0.00 48 1014.7
20260510070204 64 313 6.0 10.0 0.00 0.00 0.00 49 1014.7
20260510065704 63 317 6.0 9.0 0.00 0.00 0.00 50 1014.9
20260510065205 63 333 5.0 8.0 0.00 0.00 0.00 51 1014.7
20260510064706 63 316 5.0 9.0 0.00 0.00 0.00 54 1014.9
20260510064204 63 315 5.0 9.0 0.00 0.00 0.00 55 1014.7
20260510062704 63 313 4.0 6.0 0.00 0.00 0.00 54 1014.7
20260510062204 64 332 4.0 5.0 0.00 0.00 0.00 52 1014.6
20260510061705 65 334 4.0 5.0 0.00 0.00 0.00 52 1014.6
20260510061204 65 335 3.0 5.0 0.00 0.00 0.00 52 1014.6
20260510060204 66 335 3.0 5.0 0.00 0.00 0.00 52 1014.9
20260510055705 66 335 3.0 5.0 0.00 0.00 0.00 52 1014.9
20260510055204 66 335 3.0 5.0 0.00 0.00 0.00 53 1014.9
20260510054706 66 335 3.0 5.0 0.00 0.00 0.00 52 1014.9
20260510053704 67 335 2.0 4.0 0.00 0.00 0.00 52 1015.0
20260510052704 67 335 2.0 4.0 0.00 0.00 0.00 51 1015.0
20260510052204 67 335 1.0 4.0 0.00 0.00 0.00 50 1015.0
20260510051706 67 334 1.0 3.0 0.00 0.00 0.00 45 1015.0
20260510051204 67 334 1.0 3.0 0.00 0.00 0.00 46 1014.9
20260510050704 67 335 1.0 3.0 0.00 0.00 0.00 48 1014.9
20260510050204 67 335 1.0 3.0 0.00 0.00 0.00 45 1014.9
20260510045704 67 334 1.0 4.0 0.00 0.00 0.00 44 1014.7
20260510045204 68 334 2.0 4.0 0.00 0.00 0.00 43 1014.6
20260510044706 68 334 1.0 4.0 0.00 0.00 0.00 43 1014.6
20260510044204 69 334 1.0 3.0 0.00 0.00 0.00 45 1014.6
20260510043204 69 334 2.0 4.0 0.00 0.00 0.00 42 1014.5
20260510042704 69 334 3.0 4.0 0.00 0.00 0.00 40 1014.4
20260510042205 70 334 3.0 4.0 0.00 0.00 0.00 41 1014.3
20260510041704 70 334 1.0 3.0 0.00 0.00 0.00 40 1014.3
20260510041204 70 334 1.0 4.0 0.00 0.00 0.00 39 1014.3
20260510040705 71 334 1.0 6.0 0.00 0.00 0.00 39 1014.3
20260510040204 71 334 3.0 8.0 0.00 0.00 0.00 38 1014.2
20260510035704 71 334 4.0 9.0 0.00 0.00 0.00 37 1014.1
20260510035204 71 334 5.0 9.0 0.00 0.00 0.00 37 1014.1
20260510034704 72 333 5.0 10.0 0.00 0.00 0.00 36 1014.0
20260510034204 72 7 5.0 10.0 0.00 0.00 0.00 36 1013.9
20260510033704 72 344 5.0 14.0 0.00 0.00 0.00 35 1013.9
20260510032705 73 347 10.0 17.0 0.00 0.00 0.00 34 1013.6
20260510032204 73 343 10.0 17.0 0.00 0.00 0.00 33 1013.5
20260510031704 73 329 10.0 17.0 0.00 0.00 0.00 32 1013.5
20260510031204 73 338 10.0 17.0 0.00 0.00 0.00 31 1013.4
20260510030704 74 334 10.0 17.0 0.00 0.00 0.00 31 1013.4
20260510030204 74 332 9.0 15.0 0.00 0.00 0.00 30 1013.3
20260510025704 74 358 10.0 15.0 0.00 0.00 0.00 30 1013.2
20260510025204 75 353 11.0 16.0 0.00 0.00 0.00 30 1013.1
20260510024704 75 325 11.0 17.0 0.00 0.00 0.00 29 1013.0
20260510024204 75 338 11.0 17.0 0.00 0.00 0.00 29 1012.9
20260510023704 76 316 11.0 17.0 0.00 0.00 0.00 29 1012.9
20260510023204 76 337 12.0 17.0 0.00 0.00 0.00 28 1012.8
20260510021705 77 358 12.0 21.0 0.00 0.00 0.00 26 1012.8
20260510021204 77 358 14.0 21.0 0.00 0.00 0.00 25 1012.6
20260510020704 78 329 14.0 21.0 0.00 0.00 0.00 25 1012.6
20260510020205 78 358 14.0 21.0 0.00 0.00 0.00 26 1012.8
20260510015704 78 358 14.0 21.0 0.00 0.00 0.00 26 1012.5
20260510014704 79 358 14.0 20.0 0.00 0.00 0.00 26 1012.5
20260510014204 79 358 13.0 19.0 0.00 0.00 0.00 26 1012.4
20260510013706 80 358 13.0 22.0 0.00 0.00 0.00 25 1012.4
20260510012704 81 358 12.0 21.0 0.00 0.00 0.00 24 1012.3
20260510012204 81 290 14.0 21.0 0.00 0.00 0.00 24 1012.2
20260510011206 82 319 12.0 20.0 0.00 0.00 0.00 25 1012.2
20260510010705 82 307 12.0 20.0 0.00 0.00 0.00 26 1012.2
20260510010203 82 319 13.0 20.0 0.00 0.00 0.00 26 1012.2
20260510005704 82 312 14.0 20.0 0.00 0.00 0.00 26 1012.2
20260510005206 83 292 13.0 20.0 0.00 0.00 0.00 26 1012.2
20260510004705 83 297 14.0 19.0 0.00 0.00 0.00 26 1012.1
20260510004204 83 304 14.0 21.0 0.00 0.00 0.00 28 1012.1
20260510003704 83 313 14.0 21.0 0.00 0.00 0.00 28 1012.1
20260510003206 83 302 14.0 21.0 0.00 0.00 0.00 29 1012.1
20260510002704 84 323 14.0 21.0 0.00 0.00 0.00 29 1012.1
20260510002204 84 308 13.0 21.0 0.00 0.00 0.00 29 1012.1
20260510001704 85 300 13.0 20.0 0.00 0.00 0.00 30 1012.1
20260510001206 84 317 14.0 20.0 0.00 0.00 0.00 30 1012.1
20260510000704 84 315 14.0 20.0 0.00 0.00 0.00 30 1012.1
20260509235204 85 328 14.0 20.0 0.00 0.00 0.00 28 1012.2
20260509234704 86 310 13.0 21.0 0.00 0.00 0.00 27 1012.2
20260509234204 86 321 14.0 21.0 0.00 0.00 0.00 27 1012.2
20260509233704 86 312 14.0 21.0 0.00 0.00 0.00 27 1012.2
20260509232704 87 319 12.0 19.0 0.00 0.00 0.00 23 1012.2
20260509232204 87 309 12.0 18.0 0.00 0.00 0.00 22 1012.3
20260509231704 88 331 11.0 18.0 0.00 0.00 0.00 22 1012.3
20260509231203 88 298 12.0 18.0 0.00 0.00 0.00 20 1012.3
20260509230704 88 311 11.0 17.0 0.00 0.00 0.00 22 1012.3
20260509230204 89 317 10.0 15.0 0.00 0.00 0.00 20 1012.3
20260509225704 89 288 9.0 13.0 0.00 0.00 0.00 18 1012.3
20260509225204 89 325 9.0 13.0 0.00 0.00 0.00 18 1012.4
20260509224704 88 321 9.0 16.0 0.00 0.00 0.00 17 1012.5
20260509223704 88 291 9.0 16.0 0.00 0.00 0.00 17 1012.5
20260509222204 89 296 9.0 16.0 0.00 0.00 0.00 15 1012.6
20260509221704 89 300 8.0 16.0 0.00 0.00 0.00 16 1012.8
20260509220704 88 322 9.0 16.0 0.00 0.00 0.00 15 1013.0
20260509220205 88 314 10.0 15.0 0.00 0.00 0.00 14 1013.0
20260509215704 89 276 10.0 18.0 0.00 0.00 0.00 13 1013.1
20260509215204 89 263 10.0 18.0 0.00 0.00 0.00 13 1013.1
20260509214704 89 283 9.0 17.0 0.00 0.00 0.00 14 1013.1
20260509214204 89 263 10.0 17.0 0.00 0.00 0.00 13 1013.1
20260509213704 89 319 10.0 17.0 0.00 0.00 0.00 14 1013.2
20260509212704 89 267 9.0 14.0 0.00 0.00 0.00 14 1013.4
20260509212204 89 340 7.0 15.0 0.00 0.00 0.00 14 1013.4
20260509211205 89 276 8.0 14.0 0.00 0.00 0.00 12 1013.6
20260509210704 89 311 7.0 14.0 0.00 0.00 0.00 12 1013.5
20260509210204 89 282 6.0 14.0 0.00 0.00 0.00 12 1013.8
20260509205204 89 336 4.0 10.0 0.00 0.00 0.00 8 1013.8
20260509204703 90 229 4.0 10.0 0.00 0.00 0.00 10 1014.0
20260509203704 90 170 3.0 8.0 0.00 0.00 0.00 11 1013.9
20260509202704 89 172 4.0 8.0 0.00 0.00 0.00 12 1014.0
20260509201705 89 28 3.0 8.0 0.00 0.00 0.00 12 1014.1
20260509201204 89 138 3.0 8.0 0.00 0.00 0.00 12 1014.2
20260509200704 89 347 3.0 8.0 0.00 0.00 0.00 12 1014.1
20260509200204 88 102 3.0 8.0 0.00 0.00 0.00 12 1014.2
20260509195704 87 52 4.0 9.0 0.00 0.00 0.00 12 1014.3
20260509195204 87 70 4.0 11.0 0.00 0.00 0.00 12 1014.3
20260509194204 87 83 6.0 12.0 0.00 0.00 0.00 12 1014.5
20260509193704 87 115 5.0 12.0 0.00 0.00 0.00 12 1014.5
20260509193204 87 19 3.0 11.0 0.00 0.00 0.00 12 1014.6
20260509192205 87 88 4.0 11.0 0.00 0.00 0.00 12 1014.7
20260509191705 86 90 4.0 9.0 0.00 0.00 0.00 13 1014.9
20260509190704 85 113 5.0 11.0 0.00 0.00 0.00 13 1015.0
20260509190204 84 125 6.0 11.0 0.00 0.00 0.00 16 1014.9